TimeEST,TemperatureF,Dew PointF,Humidity,Sea Level PressureIn,VisibilityMPH,Wind Direction,Wind SpeedMPH,Gust SpeedMPH,PrecipitationIn,Events,Conditions,WindDirDegrees,DateUTC
12:56 AM,39.9,27.9,62,29.92,10.0,North,11.5,-,N/A,,Clear,360,2013-01-22 05:56:00
1:56 AM,39.9,27.3,61,29.96,10.0,NNE,5.8,-,N/A,,Partly Cloudy,20,2013-01-22 06:56:00
2:56 AM,39.0,27.0,62,29.97,10.0,North,5.8,-,N/A,,Clear,360,2013-01-22 07:56:00
3:56 AM,37.0,25.5,63,29.99,10.0,NNW,10.4,-,N/A,,Clear,340,2013-01-22 08:56:00
4:56 AM,35.4,23.4,62,30.02,10.0,NNW,8.1,-,N/A,,Clear,340,2013-01-22 09:56:00
5:56 AM,34.0,19.6,56,30.05,10.0,NW,10.4,-,N/A,,Clear,320,2013-01-22 10:56:00
6:56 AM,32.0,19.6,60,30.10,10.0,NNW,12.7,-,N/A,,Scattered Clouds,340,2013-01-22 11:56:00
7:56 AM,32.0,16.9,54,30.13,10.0,NW,11.5,21.9,N/A,,Scattered Clouds,310,2013-01-22 12:56:00
8:56 AM,33.1,16.0,50,30.16,10.0,NW,13.8,24.2,N/A,,Scattered Clouds,320,2013-01-22 13:56:00
9:56 AM,35.1,16.5,47,30.19,10.0,NNW,17.3,-,N/A,,Mostly Cloudy,330,2013-01-22 14:56:00
10:56 AM,33.1,16.2,50,30.18,10.0,NNW,15.0,21.9,N/A,,Mostly Cloudy,340,2013-01-22 15:56:00
11:56 AM,34.0,12.0,40,30.17,10.0,NW,10.4,23.0,N/A,,Mostly Cloudy,310,2013-01-22 16:56:00
12:56 PM,34.0,9.0,35,30.15,10.0,WNW,15.0,25.3,N/A,,Scattered Clouds,300,2013-01-22 17:56:00
1:56 PM,35.1,8.1,33,30.15,10.0,WNW,16.1,21.9,N/A,,Scattered Clouds,290,2013-01-22 18:56:00
2:56 PM,34.0,6.1,31,30.15,10.0,WNW,17.3,21.9,N/A,,Scattered Clouds,290,2013-01-22 19:56:00
3:56 PM,34.0,5.0,30,30.16,10.0,WNW,8.1,-,N/A,,Partly Cloudy,290,2013-01-22 20:56:00
4:56 PM,32.0,1.9,28,30.19,10.0,NW,9.2,-,N/A,,Partly Cloudy,310,2013-01-22 21:56:00
5:56 PM,30.9,1.0,28,30.22,10.0,WNW,10.4,-,N/A,,Partly Cloudy,290,2013-01-22 22:56:00
6:56 PM,28.9,5.0,36,30.24,10.0,WNW,6.9,-,N/A,,Clear,290,2013-01-22 23:56:00
7:56 PM,28.0,1.0,31,30.25,10.0,WNW,6.9,-,N/A,,Clear,290,2013-01-23 00:56:00
8:56 PM,27.0,1.9,34,30.25,10.0,WNW,5.8,-,N/A,,Clear,290,2013-01-23 01:56:00
9:56 PM,27.0,-2.9,27,30.26,10.0,WNW,6.9,-,N/A,,Clear,300,2013-01-23 02:56:00
10:56 PM,27.0,1.9,34,30.25,10.0,WNW,8.1,-,N/A,,Clear,300,2013-01-23 03:56:00
11:56 PM,26.1,1.0,34,30.27,10.0,WNW,5.8,-,N/A,,Partly Cloudy,290,2013-01-23 04:56:00